Location: Cortada Guamacho
(10.5667°N, 67.0833°W)
Time: 06:08:55
(UTC+00:00)

Cosmos 2228 Rocket - Pass Details

Date: 07 July 2022
Orbit: 618 x 651 km, 82.5° (Epoch: 12 August)

Event Time Altitude Azimuth Distance (km) Brightness Sun altitude
Rises 07:11:20 0° 19° (NNE) 2,923 7.2 -39.0°
Reaches altitude 10° 07:14:02 10° 35° (NE) 2,021 6.4 -38.5°
Enters shadow 07:15:10 15° 47° (NE) 1,723 6.0 -38.3°
